Wind_Speed
13 7 8 7 7 8 8 9 9 10 8 11 12 13 14 13 12 12 12 13 18 16 15 17 16 16 15 15 14 15 15 15 14 13 12 12 11 12 13 13 11 13 12
12 7 8 8 8 8 8 9 10 10 8 10 11 12 13 14 14 13 13 14 14 15 14 16 15 14 14 13 13 13 12 12 12 12 12 10 9 10 11 11 10 10 10
11 8 9 9 9 9 9 9 9 10 9 9 10 11 11 13 14 14 13 13 13 14 15 16 16 15 13 12 12 11 11 11 11 11 10 9 8 8 8 8 8 8 8
9 8 8 9 9 10 9 9 9 9 9 9 10 10 11 11 12 12 12 12 13 14 14 15 15 15 13 12 11 11 12 11 9 8 9 8 7 7 7 7 7 8 8
10 8 9 10 9 10 10 9 9 9 9 9 10 8 9 10 10 10 10 10 11 12 13 14 14 13 12 10 10 11 12 12 11 10 9 8 7 7 7 6 6 7 7
10 10 10 10 9 9 9 9 9 9 9 9 8 8 8 8 7 7 8 9 10 11 11 12 12 12 11 9 9 9 9 10 9 11 10 8 8 7 5 5 5 5 5
11 10 12 10 10 9 9 9 9 8 9 8 8 7 6 6 6 6 7 7 8 9 10 10 11 10 8 7 6 6 7 8 8 10 11 9 7 7 6 5 5 5 5
8 10 11 11 10 9 9 9 9 8 7 7 6 5 4 4 6 6 7 6 6 7 6 7 6 5 5 5 4 3 5 7 8 7 9 8 9 7 5 4 4 4 5
10 10 12 12 11 11 10 9 9 8 7 6 6 5 3 4 4 4 4 4 4 5 5 4 3 2 3 3 2 2 3 6 6 6 6 7 6 6 6 6 5 5 5
11 10 11 13 12 11 11 11 10 8 7 6 5 6 6 4 3 3 3 4 4 4 4 3 2 1 2 3 1 0 2 4 4 6 6 6 6 5 5 5 5 5 5
13 10 13 13 13 12 11 10 9 9 8 7 6 6 6 6 6 5 4 4 4 4 4 2 2 1 0 1 0 2 1 1 2 3 5 5 5 4 4 4 5 7 8
15 12 12 15 14 13 12 11 10 9 8 7 7 7 7 6 7 6 5 5 5 4 4 3 3 3 2 2 2 2 4 4 4 4 7 7 8 8 7 8 10 11 11
12 13 13 15 14 14 13 12 11 10 10 9 8 8 7 4 4 3 4 4 3 3 4 5 5 4 4 4 5 5 4 5 6 7 8 8 9 9 11 12 12 13 14
15 13 14 15 14 14 13 11 12 11 10 9 9 8 7 5 4 4 3 5 3 4 5 5 5 5 5 6 6 7 7 7 8 9 9 10 10 10 11 12 13 14 14
17 15 15 14 14 14 14 13 12 11 11 10 9 9 8 7 6 6 6 7 8 6 5 6 7 8 9 9 9 9 8 9 9 9 10 11 12 13 12 13 14 14 15
18 17 15 14 12 13 13 13 11 11 11 11 10 10 10 9 10 9 8 8 8 9 9 9 9 10 10 11 11 11 12 12 12 12 12 12 12 11 12 12 13 14 15
19 17 16 14 13 12 12 12 13 12 12 11 8 7 9 9 12 12 10 10 9 11 11 11 11 12 11 11 10 11 10 10 11 10 10 10 11 12 12 13 14 14 14
18 19 17 16 16 14 12 12 14 14 13 11 10 9 10 10 12 14 13 12 12 12 12 13 12 12 12 11 10 10 10 10 10 11 11 11 11 12 13 14 15 15 15
19 18 18 18 16 14 13 13 14 15 14 13 13 13 12 12 13 14 15 14 13 13 13 13 13 13 12 11 11 10 10 11 11 12 12 12 12 11 12 13 13 14 15
22 20 19 17 16 14 13 14 16 17 17 16 16 15 15 14 14 15 16 15 15 15 14 14 14 13 13 12 11 11 11 11 12 12 12 11 10 10 11 13 14 14 15
23 24 23 21 19 18 17 17 17 18 17 18 18 17 17 17 16 16 17 17 17 16 16 15 15 15 13 12 12 11 11 12 12 13 11 11 10 12 13 15 14 14 16
19 21 23 23 20 20 19 15 14 14 15 15 16 18 18 17 17 17 18 18 18 18 18 17 17 16 15 14 13 11 8 9 11 12 12 12 12 13 14 17 16 17 17
19 20 22 23 20 20 19 18 16 14 14 15 16 18 18 18 18 18 19 20 20 20 19 19 18 18 17 16 14 11 6 5 6 12 12 12 13 13 16 17 19 19 16
14 16 20 22 23 24 23 22 19 16 14 13 13 14 16 19 19 19 20 21 21 22 22 21 20 20 20 18 18 17 16 16 9 7 9 10 13 15 17 20 18 18 18
9 9 14 15 18 22 25 24 21 19 17 16 16 16 18 20 21 21 21 22 23 24 24 23 23 23 23 22 21 19 18 18 18 17 17 12 14 17 19 21 20 19 18
15 13 11 9 10 12 15 19 21 20 19 19 18 19 20 19 20 22 23 24 25 25 26 26 26 26 25 25 24 23 22 20 18 18 17 18 21 23 22 21 20 19 19
Wind_Direction
177 174 166 161 157 148 138 127 121 112 96 95 97 96 97 99 100 99 89 94 94 85 82 90 86 85 84 81 79 79 76 73 71 72 73 69 71 75 76 76 77 76 73
170 182 177 170 166 151 143 136 131 123 120 102 100 98 99 99 98 95 91 92 99 96 92 96 94 91 89 84 79 77 76 74 70 72 72 73 72 71 73 74 74 72 71
180 178 173 172 165 152 150 144 137 127 124 111 106 100 96 100 100 96 93 93 91 88 89 94 94 92 92 85 74 66 63 63 69 63 56 65 73 72 70 67 65 63 60
181 180 175 173 166 156 153 148 141 134 127 123 111 110 105 102 96 95 93 93 92 93 93 92 92 92 89 80 73 67 63 61 56 43 39 53 69 67 66 65 64 62 59
188 185 177 174 167 157 156 154 147 142 136 129 124 125 111 106 100 97 93 90 91 92 94 93 89 87 86 77 67 60 58 57 49 41 42 60 61 62 61 61 55 52 51
192 178 176 173 168 160 158 157 151 148 139 138 132 131 123 111 100 93 93 99 102 103 100 95 89 86 78 70 56 54 51 47 53 52 55 60 65 61 56 53 48 46 42
189 182 173 173 173 169 163 161 157 156 154 146 145 139 133 126 121 114 107 107 108 109 111 104 96 89 78 74 57 45 44 37 47 51 55 55 64 65 60 58 47 39 33
211 198 181 182 179 174 172 168 165 161 160 153 152 153 150 143 132 131 122 116 121 122 125 118 102 86 79 65 56 29 32 34 37 45 49 47 47 46 45 40 39 33 20
219 212 196 187 181 176 178 174 171 169 166 161 154 148 165 162 152 148 138 139 149 147 151 148 123 81 49 44 7 356 36 37 40 42 44 41 36 37 45 43 36 24 10
209 203 203 187 186 183 181 179 178 178 175 176 175 178 194 201 193 185 176 165 171 164 170 172 157 87 31 32 10 312 13 39 39 33 26 31 22 19 21 21 26 25 16
201 205 192 194 191 193 190 188 188 188 186 192 208 214 212 209 202 203 199 185 178 181 195 202 211 193 242 348 316 260 273 330 9 4 360 355 7 351 348 343 335 331 329
205 200 197 201 200 200 198 199 197 198 206 218 225 215 215 227 210 193 199 196 196 205 216 222 236 257 266 260 280 279 254 269 300 298 312 312 312 317 315 313 312 311 311
211 210 200 202 202 205 205 205 206 211 221 226 221 212 214 223 177 186 195 200 216 240 261 258 260 272 294 287 285 290 281 274 271 274 288 295 300 303 304 305 304 303 304
213 215 207 203 204 203 207 210 215 222 228 225 221 217 221 222 220 220 234 221 231 252 255 257 258 261 267 270 272 281 287 283 284 284 288 291 293 295 300 302 302 302 302
216 213 214 212 208 208 212 212 214 216 220 220 221 220 223 230 226 240 218 230 239 254 269 270 265 267 272 280 282 281 283 280 281 281 285 289 295 301 303 304 304 305 306
224 221 215 217 215 216 218 219 221 220 216 220 223 230 232 232 231 248 243 247 248 257 270 277 275 276 275 277 278 280 282 283 287 290 292 296 300 302 306 307 307 308 306
230 227 223 222 221 225 227 227 224 227 225 227 229 240 233 244 239 245 261 269 265 266 268 274 274 275 274 274 272 273 277 282 287 287 293 297 300 307 314 315 314 313 312
234 231 226 224 225 227 231 235 233 233 233 238 240 253 253 264 248 247 258 266 268 272 276 278 278 277 275 275 273 271 275 277 278 283 288 293 300 306 310 311 312 312 309
237 230 228 228 227 230 232 239 237 239 239 243 248 257 260 267 261 258 260 263 266 269 272 275 275 274 272 271 269 268 272 273 277 283 289 294 300 303 305 309 314 314 312
233 232 231 234 231 230 233 239 238 237 239 245 252 257 265 270 265 263 262 264 267 269 270 273 272 270 268 267 269 270 271 271 271 273 278 287 292 298 304 308 313 313 313
232 231 231 231 230 226 228 235 241 245 246 248 255 260 268 271 270 267 264 264 265 268 270 269 268 267 264 265 269 270 272 268 265 264 266 275 283 292 300 307 307 310 312
232 231 231 231 233 233 234 245 252 259 258 262 263 264 266 267 268 268 266 266 266 267 269 271 268 264 263 264 266 276 277 265 255 259 262 267 277 287 293 301 299 308 307
222 227 230 232 235 236 241 239 246 250 258 263 267 268 272 274 275 273 269 268 267 268 269 270 267 265 265 262 261 257 272 256 257 271 265 268 274 285 291 292 292 300 301
206 218 224 228 231 232 237 239 248 265 280 299 301 292 282 278 277 274 272 269 269 269 269 271 269 266 263 262 260 258 258 264 274 279 274 268 281 289 289 286 291 294 298
140 175 207 218 228 234 239 241 249 261 276 287 292 290 289 284 276 274 274 273 271 270 269 267 265 264 263 259 258 261 261 260 259 259 278 282 292 296 292 289 288 289 291
107 119 128 152 182 210 230 243 250 260 274 284 292 296 297 294 283 276 277 279 277 274 270 268 266 264 263 260 256 257 261 261 264 258 262 279 287 296 291 287 284 283 285
Height
1535 1537 1539 1540 1541 1542 1543 1544 1545 1546 1546 1546 1546 1546 1546 1546 1546 1547 1546 1546 1546 1546 1545 1545 1544 1544 1543 1543 1543 1544 1543 1543 1543 1542 1542 1542 1542 1542 1542 1542 1541 1541 1541
1535 1537 1539 1540 1542 1543 1544 1545 1546 1547 1548 1548 1548 1548 1548 1549 1549 1549 1548 1548 1548 1548 1547 1546 1546 1546 1546 1546 1546 1546 1546 1546 1545 1545 1545 1545 1545 1545 1544 1544 1544 1543 1543
1536 1537 1539 1540 1542 1543 1545 1546 1547 1548 1549 1549 1550 1550 1551 1551 1551 1551 1551 1550 1550 1550 1550 1550 1549 1549 1549 1549 1549 1549 1549 1548 1548 1548 1548 1547 1547 1547 1546 1547 1546 1546 1546
1536 1538 1539 1541 1543 1545 1546 1547 1548 1549 1550 1551 1551 1552 1552 1552 1553 1553 1553 1553 1553 1552 1553 1553 1552 1552 1552 1552 1552 1552 1551 1551 1550 1550 1549 1549 1549 1548 1548 1548 1548 1547 1548
1536 1539 1540 1542 1543 1545 1547 1548 1549 1550 1551 1552 1553 1553 1553 1554 1554 1554 1554 1555 1555 1555 1555 1555 1555 1555 1555 1554 1554 1553 1553 1552 1552 1551 1551 1551 1551 1551 1550 1549 1549 1549 1549
1537 1539 1541 1543 1544 1546 1547 1549 1550 1551 1552 1553 1554 1555 1555 1555 1556 1556 1556 1556 1557 1557 1557 1557 1558 1557 1557 1556 1555 1555 1555 1554 1554 1553 1553 1552 1552 1552 1551 1551 1551 1550 1550
1537 1539 1541 1543 1545 1546 1548 1549 1551 1552 1553 1554 1556 1556 1557 1557 1557 1557 1558 1558 1558 1558 1558 1558 1558 1558 1558 1558 1557 1557 1557 1556 1556 1555 1554 1554 1553 1553 1553 1552 1552 1552 1551
1537 1539 1541 1543 1545 1547 1548 1550 1551 1553 1554 1555 1556 1557 1557 1558 1558 1559 1559 1559 1559 1559 1560 1559 1560 1560 1559 1559 1558 1557 1557 1557 1556 1556 1555 1555 1555 1555 1554 1554 1553 1552 1552
1537 1539 1541 1543 1545 1547 1549 1551 1552 1554 1555 1556 1557 1558 1558 1558 1559 1560 1560 1560 1560 1561 1561 1561 1560 1560 1560 1559 1558 1558 1558 1557 1556 1556 1556 1556 1556 1555 1555 1555 1554 1553 1553
1538 1539 1541 1543 1545 1547 1549 1551 1553 1554 1555 1556 1557 1558 1558 1559 1559 1560 1560 1561 1561 1561 1561 1561 1561 1561 1561 1560 1559 1559 1558 1558 1557 1557 1556 1556 1556 1556 1556 1555 1555 1554 1554
1537 1539 1541 1543 1545 1547 1549 1551 1552 1554 1555 1556 1557 1557 1558 1558 1559 1560 1560 1561 1561 1562 1562 1562 1562 1562 1561 1561 1561 1560 1560 1559 1559 1558 1558 1557 1557 1556 1556 1556 1555 1555 1554
1536 1538 1540 1542 1545 1546 1548 1549 1551 1553 1554 1555 1556 1557 1557 1558 1559 1560 1561 1561 1561 1562 1562 1562 1562 1562 1562 1561 1561 1560 1560 1560 1559 1559 1558 1557 1557 1556 1556 1555 1555 1554 1554
1535 1537 1539 1541 1543 1545 1547 1548 1550 1552 1553 1554 1555 1556 1557 1558 1559 1560 1561 1561 1562 1562 1562 1561 1561 1561 1561 1561 1560 1560 1559 1559 1558 1558 1557 1557 1556 1556 1555 1555 1554 1553 1553
1533 1535 1538 1540 1542 1544 1546 1548 1549 1551 1552 1553 1555 1556 1557 1558 1559 1559 1560 1560 1561 1560 1560 1560 1560 1560 1560 1559 1559 1558 1558 1557 1557 1557 1557 1556 1556 1555 1554 1553 1552 1551 1551
1531 1534 1536 1539 1541 1543 1545 1547 1548 1550 1551 1552 1554 1555 1556 1556 1557 1558 1559 1560 1560 1559 1559 1559 1559 1559 1558 1558 1557 1557 1556 1556 1555 1555 1555 1554 1554 1554 1553 1552 1551 1550 1549
1529 1532 1535 1537 1540 1542 1544 1545 1547 1549 1551 1552 1553 1554 1555 1556 1556 1557 1558 1558 1558 1559 1559 1559 1558 1557 1557 1557 1556 1556 1555 1555 1555 1554 1553 1552 1552 1551 1550 1549 1548 1547 1546
1528 1531 1534 1536 1538 1540 1542 1544 1546 1548 1549 1550 1552 1553 1554 1555 1556 1556 1556 1557 1557 1557 1557 1557 1556 1556 1556 1555 1555 1554 1554 1553 1552 1552 1551 1551 1550 1549 1548 1547 1546 1544 1544
1527 1529 1532 1534 1536 1539 1541 1543 1544 1546 1548 1549 1551 1552 1553 1554 1554 1555 1555 1556 1556 1556 1556 1555 1555 1555 1554 1554 1554 1553 1552 1552 1551 1551 1550 1549 1548 1547 1546 1545 1544 1542 1541
1525 1527 1530 1532 1535 1538 1540 1542 1543 1545 1547 1548 1549 1551 1552 1553 1553 1554 1554 1554 1554 1554 1554 1553 1553 1553 1552 1551 1551 1550 1550 1549 1549 1548 1548 1547 1547 1546 1545 1544 1543 1541 1539
1521 1525 1528 1530 1533 1536 1539 1541 1542 1544 1545 1547 1548 1549 1550 1551 1551 1552 1552 1552 1552 1552 1552 1551 1551 1550 1550 1550 1549 1548 1547 1546 1546 1545 1545 1544 1544 1543 1542 1542 1541 1540 1538
1517 1520 1524 1527 1530 1533 1536 1538 1539 1541 1543 1545 1547 1548 1549 1549 1549 1550 1550 1550 1550 1550 1550 1549 1549 1548 1548 1547 1547 1546 1545 1544 1543 1542 1542 1542 1541 1541 1541 1540 1539 1537 1536
1512 1516 1520 1524 1528 1531 1534 1536 1538 1540 1542 1544 1545 1546 1546 1547 1547 1548 1548 1548 1548 1548 1548 1547 1547 1546 1546 1545 1545 1544 1542 1542 1540 1539 1539 1539 1539 1539 1538 1537 1536 1535 1533
1509 1513 1517 1522 1526 1529 1532 1535 1537 1539 1540 1541 1542 1543 1544 1544 1545 1545 1545 1545 1545 1545 1545 1545 1544 1544 1544 1543 1543 1543 1541 1539 1538 1537 1536 1536 1536 1535 1535 1533 1532 1532 1531
1507 1511 1515 1520 1523 1527 1529 1532 1534 1536 1538 1539 1540 1540 1541 1541 1541 1541 1542 1542 1542 1542 1542 1542 1542 1541 1541 1541 1540 1540 1539 1538 1536 1534 1533 1532 1532 1531 1530 1529 1528 1527 1527
1507 1509 1513 1517 1521 1525 1528 1531 1533 1535 1536 1537 1537 1537 1537 1537 1537 1538 1538 1538 1538 1538 1538 1537 1537 1537 1536 1536 1536 1536 1535 1534 1533 1532 1529 1529 1529 1528 1527 1526 1524 1523 1522
1510 1511 1514 1516 1519 1522 1525 1529 1531 1533 1534 1535 1535 1535 1534 1534 1534 1534 1534 1534 1534 1534 1533 1533 1533 1532 1532 1532 1531 1530 1530 1529 1528 1527 1526 1524 1524 1524 1523 1521 1520 1519 1518